Epoch 2023 Feb. 25.0 TT = JDT 2460000.5 T 2021 June 7.02637 TT Rudenko q 1.2345703 (2000.0) P Q n 0.13597469 Peri. 210.46428 +0.61388134 +0.71366803 a 3.7453924 Node 99.63097 -0.63753520 +0.70025547 e 0.6703762 Incl. 20.01137 -0.46550893 -0.01789444 P 7.25 >From 102 observations 2021 Aug. 9-Nov. 11, mean residual 0".6.
m1 = 16.5 + 5 logΔ + 10.0 log r